Regional Weather Roundup
Issued by NWS

Home | Current Version | Previous Version | Graphics & Text | Print | Product List | Glossary Off
Versions: 1 2 3 4 5 6 7 8 9 10 11 12 13 14 15 16 17 18 19 20 21 22 23 24 25 26 27 28 29 30 31 32 33 34 35 36 37 38 39 40 41 42 43 44 45 46 47 48 49 50

000
ASUS43 KDTX 311801
RWRMI
MICHIGAN HOURLY REGIONAL WEATHER ROUNDUP
NATIONAL WEATHER SERVICE DETROIT/PONTIAC MI
200 PM EDT MON AUG 31 2015

NOTE: "FAIR" INDICATES FEW OR NO CLOUDS BELOW 12,000 FEET WITH NO
SIGNIFICANT WEATHER AND/OR OBSTRUCTION TO VISIBILITY.

MIZ047>049-052>055-059>063-066>070-074>076-081>083-311900-
SOUTHEAST LOWER MICHIGAN

CITY           SKY/WX    TMP DP  RH WIND       PRES   REMARKS
ADRIAN         PTSUNNY   83  67  58 W7        30.08F
6HR MIN TEMP:  63; 6HR MAX TEMP:  85;

ALMA           PTSUNNY   73  66  80 SW3       30.09F
6HR MIN TEMP:  63; 6HR MAX TEMP:  73;

ANN ARBOR      PTSUNNY   82  67  60 W12       30.08F
BAD AXE        SUNNY     74  64  72 SW9       30.07F
CARO           PTSUNNY   71  65  81 SW5       30.08F
DETROIT CITY   SUNNY     82  61  48 VRB7      30.07F
6HR MIN TEMP:  68; 6HR MAX TEMP:  82;

DETROIT        MOSUNNY   84  67  56 W13       30.08F
6HR MIN TEMP:  68; 6HR MAX TEMP:  84;

FLINT          SUNNY     76  64  66 SW6       30.09F
6HR MIN TEMP:  65; 6HR MAX TEMP:  76;

GROSSE ILE     PTSUNNY   82  70  65 W8        30.07S
HILLSDALE      MOSUNNY   83  68  61 W7        30.10F
6HR MIN TEMP:  63; 6HR MAX TEMP:  83;

HOWELL         MOSUNNY   78  65  63 W6        30.10S
6HR MIN TEMP:  62; 6HR MAX TEMP:  78;


CITY           SKY/WX    TMP DP  RH WIND       PRES   REMARKS
JACKSON        MOSUNNY   78  68  71 W8        30.10F
6HR MIN TEMP:  63; 6HR MAX TEMP:  79;

LAMBERTVILLE   PTSUNNY   85  68  55 SW6       30.08F
6HR MIN TEMP:  65; 6HR MAX TEMP:  85;

LANSING        MOSUNNY   76  65  68 W7        30.09F
6HR MIN TEMP:  63; 6HR MAX TEMP:  77;

LAPEER         FAIR      74  65  73 SW5       30.08F HAZE
6HR MIN TEMP:  64; 6HR MAX TEMP:  74;

MASON          PTSUNNY   77  64  63 SW5       30.10F
6HR MIN TEMP:  61; 6HR MAX TEMP:  77;

MONROE         CLOUDY    84  68  57 W9G16     30.07F
6HR MIN TEMP:  65; 6HR MAX TEMP:  84;

MT. CLEMENS    SUNNY     77  66  67 NW5       30.06F
6HR MIN TEMP:  65; 6HR MAX TEMP:  77;

PONTIAC        MOSUNNY   77  63  61 W7        30.08F
6HR MIN TEMP:  63; 6HR MAX TEMP:  77;

PORT HOPE        N/A     77  65  66 VRB6      30.04F
6HR MIN TEMP:  64; 6HR MAX TEMP:  77;

PORT HURON     SUNNY     75  66  73 SW5       30.08F
TRI CITIES     SUNNY     75  64  68 SW12      30.08F
6HR MIN TEMP:  64; 6HR MAX TEMP:  76;

MIDLAND        FAIR      75  63  66 S7        30.07F
TROY           SUNNY     80  64  57 W5        30.09F
SAGINAW HB     MOSUNNY   73  64  73 SW3       30.07F
$$
MIZ043>046-050>051-056>058-064>065-071>073-077>080-311900-
SOUTHWEST LOWER MICHIGAN

CITY           SKY/WX    TMP DP  RH WIND       PRES   REMARKS
BATTLE CREEK   MOSUNNY   80  67  64 SW8       30.10F
6HR MIN TEMP:  64; 6HR MAX TEMP:  80;

BENTON HARBOR  SUNNY     77  69  76 W8        30.08F
6HR MIN TEMP:  58; 6HR MAX TEMP:  78;

BIG RAPIDS     PTSUNNY   74  65  72 W6        30.08F
6HR MIN TEMP:  59; 6HR MAX TEMP:  74;

COLDWATER      PTSUNNY   83  69  62 W7        30.09F
6HR MIN TEMP:  62; 6HR MAX TEMP:  83;

FREMONT        FAIR      75  66  74 S5        30.08S HAZE
HOLLAND        PTSUNNY   80  67  64 VRB6      30.09F
6HR MIN TEMP:  61; 6HR MAX TEMP:  80;

GRAND RAPIDS   MOSUNNY   78  66  66 W7        30.09F
6HR MIN TEMP:  61; 6HR MAX TEMP:  78;

IONIA          PTSUNNY   77  65  68 W6        30.08F
6HR MIN TEMP:  64; 6HR MAX TEMP:  77;

KALAMAZOO      PTSUNNY   80  67  64 SW6       30.09F
6HR MIN TEMP:  59; 6HR MAX TEMP:  80;

LUDINGTON      MOSUNNY   76  69  78 SW10      30.07S
6HR MIN TEMP:  66; 6HR MAX TEMP:  76;

MOUNT PLEASANT SUNNY     78  65  65 SW8       30.07F
6HR MIN TEMP:  64; 6HR MAX TEMP:  78;

MUSKEGON       PTSUNNY   76  65  68 SW9       30.09S
6HR MIN TEMP:  61; 6HR MAX TEMP:  76;

SOUTH HAVEN    SUNNY     78  67  69 W7        30.08F
$$
MIZ016>042-311900-
NORTHERN LOWER MICHIGAN

CITY           SKY/WX    TMP DP  RH WIND       PRES   REMARKS
ALPENA         SUNNY     80  65  59 VRB6      30.03F
6HR MIN TEMP:  62; 6HR MAX TEMP:  80;

BEAVER ISLAND  CLOUDY    68  65  88 SW8       30.02F FOG
6HR MIN TEMP:  65; 6HR MAX TEMP:  68;

BELLAIRE       SUNNY     78  63  58 SW8       30.03F
6HR MIN TEMP:  65; 6HR MAX TEMP:  78;

CADILLAC       SUNNY     76  66  70 SW8       30.07F
CHARLEVOIX     SUNNY     76  67  71 SW7       30.05S
FRANKFORT      SUNNY     73  66  80 SW10G16   30.05S
GAYLORD        SUNNY     77  66  68 SW10      30.05F
6HR MIN TEMP:  63; 6HR MAX TEMP:  77;

GRAYLING       SUNNY     79  64  59 SW3       30.06F
6HR MIN TEMP:  61; 6HR MAX TEMP:  79;

HARBOR SPRINGS SUNNY     77  67  71 W6        30.02S
HOUGHTON LAKE  SUNNY     78  64  61 VRB5      30.06F
6HR MIN TEMP:  62; 6HR MAX TEMP:  78;

MANISTEE       MOSUNNY   75  64  69 SW7       30.06F
OSCODA         SUNNY     82  66  58 S8        30.02F
6HR MIN TEMP:  64; 6HR MAX TEMP:  82;

PELLSTON       MOSUNNY   78  66  66 SW9G17    30.02F
6HR MIN TEMP:  67; 6HR MAX TEMP:  78;

ROGERS CITY    SUNNY     71  65  82 NE6       30.04S
TRAVERSE CITY  SUNNY     78  63  59 SW9G17    30.03F
6HR MIN TEMP:  66; 6HR MAX TEMP:  79;

$$
MIZ007>008-015-311900-
EASTERN UPPER MICHIGAN

CITY           SKY/WX    TMP DP  RH WIND       PRES   REMARKS
KINROSS        CLOUDY    72  66  83 SW5       30.01F
6HR MIN TEMP:  64; 6HR MAX TEMP:  72;

MACKINAC ISLAN SUNNY     72  66  81 W14G20    30.02S
NEWBERRY       CLOUDY    72  65  78 S9        30.00F
6HR MIN TEMP:  62; 6HR MAX TEMP:  72;

S. S. MARIE    CLOUDY    72  65  78 SE5       30.01S
6HR MIN TEMP:  66; 6HR MAX TEMP:  72;

$$
MIZ004>006-011>014-085-311900-
CENTRAL UPPER MICHIGAN

CITY           SKY/WX    TMP DP  RH WIND       PRES   REMARKS
MANISTIQUE     CLOUDY    66  63  91 S10G16    30.00S FOG
6HR MIN TEMP:  64; 6HR MAX TEMP:  67;

ESCANABA       SUNNY     70  64  83 S14       29.98F
6HR MIN TEMP:  63; 6HR MAX TEMP:  72;

MENOMINEE      MOSUNNY   73  63  68 SW8       30.00F
6HR MIN TEMP:  63; 6HR MAX TEMP:  73;

SAWYER-GWINN   SUNNY     82  63  51 S12       29.96F
$$
MIZ001>003-009>011-084-311900-
WESTERN UPPER MICHIGAN

CITY           SKY/WX    TMP DP  RH WIND       PRES   REMARKS
IRON MOUNTAIN  SUNNY     82  64  54 S7        29.97F
6HR MIN TEMP:  57; 6HR MAX TEMP:  82;

HOUGHTON       SUNNY     81  64  56 SE6       29.91F
6HR MIN TEMP:  61; 6HR MAX TEMP:  81;

IRONWOOD       SUNNY     81  64  57 S14       29.90F
6HR MIN TEMP:  63; 6HR MAX TEMP:  81;

$$

ABBREVIATIONS USED IN REMARKS
   TC - TEMPERATURE IN CELSIUS
  WCI - WIND CHILL INDEX
   HX - HEAT INDEX
  VSB - VISIBILITY



USA.gov is the U.S. government's official web portal to all federal, state and local government web resources and services.